Flag for U.S.A. Weather past 2 weeks in Denver, Colorado, U.S.A.

Now
46 °F

Partly cloudy.


Feels Like: 41 °F
Forecast: 25 / 39 °F
Wind: 10 mph from Northwest

Location: Buckley Air Force Base

Current Time: Dec 21, 2014 at 5:23:41 PM

Latest Report: Dec 21, 2014 at 4:58 PM


Visibility: 10 mi

Pressure: 29.54 "Hg

Humidity: 45%

Dew point: 26 °F

Location of DenverLocation

Historic Weather in Denver — Graph

°F

Denver temperature yesterday

Maximum temperature yesterday: 49 °F (at 2:58 PM)
Minimum temperature yesterday: 29 °F (at 11:58 PM)
Average temperature yesterday: 36 °F

Past Weeks' High & Low Weather Summary

 TemperatureHumidityPressure
High66 °F (Dec 12, 2:58 PM)100% (Dec 14, 10:58 AM)30.39 "Hg (Dec 14, 10:58 AM)
Low19 °F (Dec 15, 11:58 PM)9% (Dec 10, 12:58 PM)29.52 "Hg (Dec 21, 1:58 PM)
Average36 °F57%30.04 "Hg
* Reported Dec 6 3:58 PM — Dec 21 3:58 PM, Denver, Weather by CustomWeather, © 2014

Note: Actual official high and low records may vary slightly from our data, if they occured in-between our weather recording intervals... More about our weather records

Advertising

Denver weather history for previous 24 hours

 ConditionsComfort  
Time TempWeatherWind HumidityBarometerVisibility
3:58 PM
Dec 21
46 °FPartly sunny.14 mph43%29.54 "Hg10 mi
2:58 PM48 °FPartly sunny.25 mph41%29.52 "Hg10 mi
1:58 PM48 °FPartly sunny.15 mph37%29.52 "Hg10 mi
12:58 PM50 °FPartly sunny.6 mph31%29.54 "Hg10 mi
11:58 AM45 °FPartly sunny.5 mph36%29.58 "Hg10 mi
10:58 AM47 °FBroken clouds.7 mph33%29.59 "Hg10 mi
9:58 AM44 °FPartly sunny.8 mph35%29.64 "Hg10 mi
8:58 AM43 °FBroken clouds.10 mph39%29.63 "Hg10 mi
7:58 AM35 °FBroken clouds.12 mph50%29.67 "Hg10 mi
6:58 AM33 °FPartly cloudy.10 mph57%29.75 "Hg10 mi
5:58 AM31 °FPassing clouds.10 mph60%29.77 "Hg10 mi
4:58 AM30 °FPassing clouds.9 mph63%29.79 "Hg10 mi
3:58 AM28 °FPassing clouds.10 mph68%29.80 "Hg10 mi
2:58 AM28 °FPassing clouds.10 mph67%29.81 "Hg10 mi
1:58 AM29 °FPassing clouds.8 mph66%29.84 "Hg10 mi
12:58 AM31 °FPassing clouds.6 mph68%29.86 "Hg10 mi
11:58 PM
Dec 20
29 °FPassing clouds.7 mph68%29.92 "Hg10 mi
10:58 PM36 °FPassing clouds.5 mph55%29.89 "Hg10 mi
9:58 PM35 °FPassing clouds.7 mph58%29.91 "Hg10 mi
8:58 PM36 °FPartly cloudy.7 mph58%29.91 "Hg10 mi
7:58 PM36 °FPartly cloudy.6 mph60%29.93 "Hg10 mi
6:58 PM36 °FPartly cloudy.6 mph61%29.95 "Hg10 mi
5:58 PM33 °FPartly cloudy.9 mph65%29.98 "Hg10 mi
Weather by CustomWeather, © 2014

See weather overviewHow to use our weather pages